Tracking 20472 objects as of 28-Feb-2020
HD Live streaming from Space Station
objects crossing your sky now

COSMOS 1275 DEB

Track COSMOS 1275 DEB now!
10-day predictions


NORAD ID: 20505
Int'l Code: 1981-053MS
Perigee: 780.2 km
Apogee: 811.9 km
Inclination: 83.2 °
Period: 100.6 minutes
Semi major axis: 7167 km
RCS: 0.0047 m2 (small)
Launch date: June 4, 1981
Source: Commonwealth of Independent States (former USSR) (CIS)
Launch site: PLESETSK MISSILE AND SPACE COMPLEX (PKMTR)

Note: This is SATELLITE DEBRIS
aabbcc
Your satellite tracking list
Your tracking list is empty




NASA's NSSDC Master Catalog

Two Line Element Set (TLE):
1 20505U 81053MM  20058.90981397  .00000547  00000-0  20137-3 0  9992
2 20505  83.1587 289.8864 0022118 343.7306  16.3169 14.30843857638489
Source of the keplerian elements: AFSPC